Wind_Speed
13 13 15 17 17 18 17 15 15 14 14 14 14 13 13 12 12 11 11 10 11 11 11 11 10 10 9 9 8 8 7 8 8 9 9 8 7 7 7 7 7 6 7 9 9 8 7 7 8 8 8 9 10 10 11 12 12 11 11 10 9 8 8 8 7 7 7 7 7 8 8 9 9 9 10 10 9 9 8 7 8 9 11 12 12
13 13 14 15 16 17 15 14 13 13 14 14 14 14 14 14 14 13 12 12 12 11 11 11 10 9 8 8 8 7 7 8 8 9 9 8 7 7 6 6 5 5 7 8 8 7 7 7 7 8 8 8 9 10 10 10 10 11 11 10 9 8 8 8 8 8 8 8 8 8 9 9 10 10 10 11 10 10 10 8 8 9 10 11 12
15 13 14 14 15 16 14 13 13 13 14 15 15 15 15 15 15 14 13 12 11 11 10 10 9 8 8 8 8 7 7 8 8 8 9 8 7 7 6 5 5 6 7 7 7 6 6 7 7 8 8 8 9 10 10 9 8 9 10 10 10 8 8 8 9 9 9 9 9 9 9 9 10 11 11 11 11 11 11 10 9 10 10 11 11
15 14 14 14 13 14 13 13 14 14 15 15 15 15 15 15 14 14 13 12 11 10 10 9 9 8 8 8 7 7 7 7 8 8 8 7 6 6 5 5 6 7 7 7 6 5 6 6 6 7 8 8 9 9 10 9 8 8 9 9 10 9 8 8 9 10 10 10 9 9 10 10 10 11 11 12 12 12 12 12 10 10 11 11 11
15 14 13 13 13 13 13 14 15 15 15 15 15 15 15 14 14 13 12 11 10 9 9 8 8 7 7 8 7 6 7 8 7 7 7 6 5 5 4 4 6 7 7 7 6 5 5 6 6 6 7 7 7 8 8 9 8 8 7 7 9 9 8 8 8 9 9 10 9 9 10 10 10 10 11 11 11 11 12 12 12 11 11 11 11
14 14 14 13 14 14 14 15 15 15 15 15 14 14 14 14 13 12 11 10 9 9 8 8 7 7 7 7 6 6 7 7 6 6 5 4 4 4 4 4 6 7 6 6 6 5 5 6 5 5 6 6 5 5 6 7 8 8 8 7 8 9 8 8 8 8 8 9 9 9 9 9 9 9 9 10 10 10 11 12 12 12 12 11 11
14 14 14 14 15 16 15 15 15 15 15 14 14 14 14 13 12 11 10 9 8 8 8 8 7 6 6 5 5 5 6 5 5 5 5 4 4 4 4 4 6 6 6 5 5 5 5 5 5 5 5 5 4 4 5 6 7 7 8 8 7 8 8 7 6 7 8 8 8 8 8 8 8 8 7 8 9 9 9 10 11 12 12 12 11
14 14 15 15 16 16 15 14 14 14 14 13 13 13 13 12 11 10 9 8 7 7 7 7 6 5 5 4 4 5 5 5 5 5 4 4 4 4 4 4 5 5 5 4 4 4 5 5 5 5 5 5 4 4 4 5 6 6 7 8 7 7 7 7 6 6 7 7 7 7 7 7 7 7 6 6 7 8 8 8 9 10 11 12 12
15 15 15 14 15 15 14 14 13 13 13 12 12 12 11 10 10 9 8 7 7 7 7 6 5 4 3 3 4 5 5 5 5 5 4 4 4 3 3 3 3 3 3 3 3 4 4 5 4 4 5 5 4 4 4 4 5 5 6 7 7 7 7 7 6 6 7 7 7 7 7 7 7 6 6 5 5 6 6 7 7 8 8 10 11
15 14 14 14 13 13 13 12 12 12 11 11 11 11 10 9 9 8 7 7 7 7 6 5 5 4 3 3 4 5 5 4 4 4 4 4 4 3 3 3 2 2 2 2 2 2 3 4 4 4 4 4 4 4 4 4 4 4 5 6 5 6 7 7 7 6 6 7 7 6 6 7 7 5 5 5 5 5 5 5 6 7 7 7 8
13 13 13 13 12 11 11 10 10 10 9 9 9 9 8 8 7 7 7 7 7 6 6 5 5 4 4 4 4 4 4 4 3 4 4 4 4 4 5 4 4 4 4 3 3 2 3 3 4 4 4 3 3 3 3 3 3 3 3 4 4 4 7 8 7 6 5 5 6 6 7 7 7 6 5 5 5 5 5 5 5 6 6 6 5
12 12 12 11 10 10 9 9 9 8 7 7 8 8 7 6 6 7 7 7 7 7 7 6 6 4 4 4 4 4 4 4 3 3 4 5 6 6 6 6 6 6 6 6 5 4 4 4 3 4 4 3 3 3 3 3 2 2 2 3 2 3 5 7 7 6 6 6 6 6 7 8 7 7 7 6 5 4 5 5 5 5 5 5 4
11 10 9 8 8 8 8 8 7 7 6 7 7 7 6 7 7 8 8 8 7 7 8 7 6 5 4 4 4 4 4 3 3 4 5 6 7 7 7 7 7 6 6 7 7 7 6 6 5 4 4 3 3 3 2 2 1 1 2 2 1 2 3 6 7 6 6 7 7 7 7 8 8 7 7 7 6 5 5 5 5 5 4 4 4
9 8 7 6 6 7 7 7 7 6 6 7 8 7 7 8 8 8 8 8 8 8 8 8 6 5 5 5 5 5 4 4 4 5 6 7 8 8 8 8 7 7 8 8 9 9 9 9 8 6 4 4 4 4 3 2 1 1 1 1 1 2 3 5 6 6 6 6 7 6 6 7 8 7 7 7 6 5 5 4 5 5 4 4 4
7 7 6 5 5 7 7 7 7 7 7 8 9 8 8 9 9 9 9 8 8 8 9 8 7 6 6 6 6 5 5 5 5 6 7 9 10 11 11 10 10 11 11 11 12 13 12 12 10 8 6 5 4 4 4 3 2 2 2 1 1 2 2 3 4 5 6 5 6 6 5 6 7 7 7 6 6 5 4 4 5 5 5 4 4
5 5 5 5 5 7 8 7 7 8 9 9 9 9 9 9 9 9 9 9 9 10 10 10 9 8 7 7 7 7 6 6 7 9 10 12 13 14 14 14 14 15 15 14 14 15 15 14 12 10 8 6 5 5 5 4 5 5 5 4 3 2 1 1 2 3 5 6 6 6 5 4 4 5 5 5 5 5 4 4 4 5 6 5 4
3 3 4 5 7 8 8 8 9 9 10 10 10 10 9 9 9 9 10 10 11 11 11 11 10 9 8 7 7 8 7 8 9 11 13 14 15 16 17 17 17 17 17 17 17 17 16 15 14 12 10 9 9 8 8 8 8 8 7 5 4 2 0 1 2 2 4 6 6 7 6 4 3 3 2 3 4 4 4 4 3 4 5 6 5
2 2 4 6 8 9 8 9 10 10 10 11 11 10 10 10 10 11 11 12 12 12 11 11 10 9 8 7 8 9 9 10 12 14 15 16 17 17 17 18 18 19 19 20 20 19 17 16 16 14 13 12 13 12 11 10 10 10 9 8 6 4 2 0 1 1 2 4 6 7 6 5 5 3 2 1 1 2 3 3 3 2 3 5 6
1 2 5 7 8 9 9 9 10 10 11 11 11 11 11 11 12 12 13 13 13 12 11 10 10 9 8 8 9 10 11 12 14 15 16 16 17 17 18 18 19 20 21 21 21 20 19 19 18 17 16 16 17 15 13 13 12 12 13 13 12 9 6 4 3 2 2 3 3 4 4 5 6 6 5 3 2 1 1 1 2 2 2 3 5
1 3 6 7 8 9 9 10 11 11 12 12 12 12 12 12 13 13 14 14 13 12 11 11 10 10 9 10 11 12 14 14 15 15 16 16 17 17 18 19 19 20 21 22 22 21 20 20 20 19 18 20 20 18 16 16 14 15 15 15 15 14 12 9 8 7 5 3 2 1 2 3 4 6 6 5 3 3 2 2 2 2 2 3 4
1 4 7 8 9 9 10 11 12 13 13 13 13 13 13 13 14 14 14 14 14 13 12 12 11 11 11 12 13 14 15 15 15 15 16 16 17 17 18 19 19 20 22 22 22 21 21 21 20 19 19 20 21 19 17 17 16 15 14 14 15 15 14 12 11 10 8 5 3 2 1 1 2 3 4 5 4 4 4 4 4 4 4 4 4
3 6 8 8 9 10 11 12 13 14 14 14 14 14 14 14 15 15 15 15 15 14 13 12 12 12 13 14 15 15 16 16 16 16 16 16 17 17 17 18 19 20 21 21 22 21 21 21 21 19 18 19 21 20 18 17 17 16 15 15 15 14 14 13 12 11 9 8 6 4 3 2 2 2 3 4 5 5 6 6 6 6 6 5 5
5 8 10 10 9 10 12 13 14 15 15 15 15 15 15 15 15 16 16 16 16 15 13 12 13 14 15 15 16 16 16 17 16 16 16 16 16 16 16 17 17 18 19 20 20 20 20 20 20 20 18 18 18 18 18 17 17 17 16 16 16 15 15 14 12 11 10 9 8 6 4 2 2 2 3 4 5 6 7 8 8 8 8 7 6
8 10 11 11 11 11 13 14 14 15 15 15 15 15 15 15 15 16 16 16 16 14 13 13 14 15 15 15 16 17 17 17 16 16 16 15 15 15 15 16 16 16 17 17 18 18 18 18 18 18 17 16 15 15 15 16 16 15 15 15 15 15 15 14 13 12 12 11 10 9 7 5 4 4 3 4 5 6 7 8 9 9 9 8 8
10 12 12 12 12 13 14 15 15 14 15 15 14 14 14 14 15 15 16 15 15 14 14 14 14 15 15 15 16 17 17 17 16 15 15 14 14 14 14 15 15 15 15 15 16 16 17 16 16 16 15 15 14 14 14 14 14 13 13 13 13 13 13 13 12 12 12 12 12 11 10 9 8 7 5 4 3 5 6 7 8 9 9 9 8
12 13 13 13 14 14 14 15 15 15 14 14 14 13 13 14 14 14 15 15 15 14 14 15 15 15 15 15 15 16 16 16 16 14 14 13 13 13 13 13 14 14 14 14 15 15 15 15 15 15 15 15 14 14 13 13 13 12 12 11 11 11 11 11 11 11 11 11 11 11 11 11 10 9 8 7 5 4 4 5 6 7 8 8 9
13 14 14 14 14 15 15 15 15 15 14 14 13 13 13 13 13 13 14 14 15 15 15 16 16 15 15 15 15 15 15 15 14 13 13 12 12 12 12 12 13 13 13 13 14 14 15 15 14 14 14 14 14 13 12 12 11 11 10 10 9 9 10 9 9 9 9 9 10 10 11 11 11 11 10 9 8 6 5 5 5 5 6 7 8
14 14 13 14 14 14 14 14 14 14 13 13 13 12 12 12 13 13 13 14 15 15 16 16 16 16 15 15 14 14 13 13 12 12 12 11 11 11 12 13 12 13 13 13 13 13 13 13 13 13 13 13 12 11 11 11 10 9 9 9 9 8 9 8 7 7 8 8 8 9 9 10 10 10 10 10 10 10 10 10 9 7 5 4 5
15 15 13 14 14 13 13 13 13 13 12 12 12 12 12 12 13 13 13 14 15 15 15 15 15 15 15 14 14 13 12 11 11 11 11 10 11 11 12 12 11 12 13 12 11 11 10 11 11 11 10 11 11 10 10 10 10 9 9 9 9 9 9 8 7 7 7 7 7 7 8 8 8 9 9 10 11 11 12 12 12 10 7 4 3
15 14 13 14 14 13 13 12 12 11 11 12 12 12 12 12 12 12 13 13 14 14 14 14 14 13 13 13 13 12 11 10 10 10 10 10 11 11 11 11 11 11 10 10 9 9 9 10 10 10 9 10 10 10 9 10 10 9 9 9 9 8 8 8 7 7 6 6 6 6 6 7 7 8 9 9 10 10 11 11 11 10 8 7 6
15 14 13 14 13 13 13 12 11 11 11 11 11 12 11 11 12 13 13 13 13 13 13 13 13 12 12 11 11 11 10 10 10 9 9 9 10 10 10 10 9 9 8 8 8 8 9 9 10 10 10 10 10 10 9 9 9 9 9 9 8 8 8 8 8 7 6 6 5 5 5 6 6 7 8 8 9 9 9 10 10 9 8 7 8
16 14 14 14 13 13 13 11 11 11 11 11 11 12 11 11 12 13 13 12 12 12 12 12 11 11 10 10 9 9 9 8 8 8 8 8 9 9 9 8 7 7 7 7 7 8 9 9 9 10 10 11 11 10 9 9 9 9 9 9 9 8 8 8 8 7 6 5 5 5 5 5 6 6 7 8 8 8 8 9 8 8 8 7 7
16 15 14 14 14 13 12 12 11 11 11 11 11 12 11 11 11 12 12 12 11 11 11 11 10 9 9 8 7 7 7 7 7 7 8 8 8 8 7 7 6 6 6 6 7 8 9 9 10 10 10 11 11 11 10 9 9 9 9 9 8 8 8 8 8 8 7 6 5 6 5 5 5 5 6 6 7 7 8 8 8 7 7 7 7
15 15 15 14 14 14 13 12 11 11 11 11 10 11 11 11 11 11 11 11 10 10 10 9 9 8 7 7 6 6 5 6 7 7 7 8 8 7 6 6 6 6 6 7 8 8 9 10 11 11 11 11 10 10 10 9 9 9 8 8 8 8 8 8 8 8 7 7 7 6 6 5 5 5 5 5 6 6 7 7 8 7 7 7 8
15 15 15 14 14 14 12 11 11 11 10 10 10 10 11 10 10 9 9 9 9 9 9 8 8 7 6 5 5 5 5 6 6 6 7 7 6 6 5 5 5 6 7 8 9 9 9 10 11 11 11 10 10 10 10 10 10 9 9 8 8 8 8 8 9 9 9 8 8 6 6 6 5 5 5 5 5 6 6 7 7 8 8 8 8
14 15 15 14 14 13 12 11 11 10 9 9 9 10 10 10 10 9 9 8 8 8 8 7 7 6 6 5 4 4 5 6 6 6 6 6 5 4 5 5 6 7 8 8 9 10 10 10 11 11 11 10 10 11 11 10 10 10 9 8 8 8 8 8 8 9 9 9 8 7 6 6 6 6 6 6 6 6 6 6 6 7 8 9 8
14 14 15 14 14 13 11 11 10 10 9 8 8 9 9 9 9 9 9 8 7 7 7 6 6 5 5 5 5 5 5 5 4 5 5 4 4 4 5 6 8 8 9 10 11 11 11 11 11 11 11 11 11 11 11 11 11 10 9 9 8 8 8 8 8 8 9 9 9 8 7 7 7 7 7 6 6 7 7 6 6 6 7 8 8
14 14 14 13 13 12 11 10 10 9 8 7 7 7 8 8 8 9 9 9 7 6 6 6 5 5 5 5 6 5 5 4 4 4 4 4 4 6 7 8 9 10 11 12 13 13 13 13 12 12 11 12 11 11 12 12 11 11 10 10 9 9 9 8 8 9 9 9 9 9 9 8 8 8 7 6 6 7 7 7 6 5 5 7 8
14 13 14 13 12 11 10 10 9 9 8 7 7 7 7 7 8 9 9 9 7 6 5 5 6 5 5 5 5 5 4 4 4 4 4 5 6 8 9 10 11 12 13 14 15 15 15 14 13 13 12 11 11 11 11 12 11 11 11 11 11 11 10 10 9 9 10 10 9 9 9 9 10 9 8 7 6 6 7 7 7 6 5 6 7
14 13 14 13 12 11 10 9 9 8 8 7 6 6 7 7 7 8 8 9 8 7 5 5 5 5 5 4 4 4 3 3 4 4 5 7 9 10 11 13 14 15 15 16 16 16 15 14 13 12 11 11 11 11 10 11 11 11 11 12 12 12 12 11 11 11 11 10 9 9 8 9 10 10 9 8 7 6 6 7 8 8 7 6 7
14 13 13 13 11 10 10 10 9 8 8 7 7 6 7 7 7 7 7 8 8 7 5 5 5 5 4 3 3 3 3 4 5 6 8 10 11 13 14 15 16 16 17 17 17 16 14 13 12 11 11 11 10 10 10 10 11 11 11 11 11 12 13 13 12 12 12 12 11 11 11 11 11 11 10 9 8 7 6 7 8 9 9 8 7
14 13 13 12 11 10 10 10 10 9 9 8 7 7 7 7 7 7 7 7 7 7 6 5 5 5 4 3 2 2 3 4 6 8 10 11 13 14 15 16 16 16 16 16 15 14 12 11 11 11 11 11 10 10 10 10 11 11 12 11 11 12 13 13 13 13 13 13 12 12 13 13 13 13 12 10 9 9 8 7 8 10 10 10 8
14 13 13 12 11 10 10 10 10 10 9 9 8 7 7 7 7 7 6 6 6 6 6 5 4 4 3 2 0 1 3 5 7 9 11 12 13 14 14 14 14 14 13 13 12 11 10 10 10 10 10 10 9 9 9 10 10 11 12 12 12 12 13 13 13 14 15 15 14 13 14 14 14 15 14 13 11 10 10 9 9 10 11 11 8
13 12 12 12 12 12 11 11 9 9 9 9 8 7 7 7 7 7 7 7 6 6 6 5 4 3 2 1 1 3 4 6 8 10 11 12 12 12 12 11 10 11 11 11 10 10 9 9 9 9 9 9 9 9 9 9 10 11 12 12 12 12 13 13 13 14 15 16 16 16 15 15 15 16 16 16 14 12 12 11 11 11 12 12 10
12 12 12 12 12 12 11 11 10 8 8 9 8 8 8 8 7 7 7 7 6 6 6 5 5 4 3 3 3 5 6 7 9 10 11 11 11 10 9 8 8 9 10 10 9 9 8 8 9 9 10 10 10 10 10 10 11 12 12 12 13 13 13 13 13 14 15 16 17 18 17 16 16 16 17 17 16 14 13 13 13 14 14 14 13
12 12 12 12 12 11 10 10 10 10 9 9 9 9 8 8 8 8 7 7 7 7 6 6 6 5 4 4 5 6 7 9 10 11 10 9 9 8 7 7 7 8 9 10 9 9 9 9 10 10 11 11 11 11 11 11 12 13 14 14 15 15 15 15 15 14 15 15 16 17 18 19 18 18 18 18 17 16 15 15 15 15 16 17 17
12 12 12 11 11 11 10 10 10 11 10 9 8 9 9 9 9 8 8 8 8 7 7 7 7 6 5 5 6 7 8 10 10 11 10 8 7 7 6 6 7 8 9 10 10 10 10 10 11 11 12 12 13 13 13 13 14 14 15 15 16 16 16 16 16 15 15 16 16 16 17 19 21 20 20 19 18 17 17 17 16 16 16 17 19
12 11 11 11 11 11 11 11 11 11 10 9 8 9 9 9 9 9 9 9 8 8 8 7 7 7 6 6 7 8 9 10 10 10 9 8 7 6 6 6 7 8 9 10 11 11 11 12 12 12 13 14 15 15 15 15 15 15 15 16 16 17 17 17 17 17 17 17 17 17 17 18 21 23 23 23 21 19 18 18 18 18 18 18 19
10 11 11 11 11 11 11 11 11 11 10 10 9 9 9 9 9 9 10 10 9 8 8 7 7 7 7 7 8 9 10 10 10 9 8 7 6 6 6 7 8 8 9 10 11 12 13 13 13 13 14 14 15 16 16 16 16 16 16 16 17 18 18 19 19 20 20 19 19 19 19 19 20 22 23 25 26 24 21 20 19 19 20 21 21
10 11 11 11 11 11 11 11 12 11 12 12 11 11 10 10 10 11 11 10 9 9 8 7 7 8 8 8 9 11 11 10 9 8 8 8 7 7 7 8 8 9 10 11 12 13 13 14 14 14 14 15 15 16 17 17 18 18 18 18 18 19 20 21 22 23 23 23 22 21 20 20 20 21 22 23 26 27 25 22 21 21 22 23 24
11 12 12 12 13 13 12 13 13 13 13 13 13 13 12 11 12 12 12 11 10 10 9 8 8 9 9 9 10 12 11 10 9 9 9 8 8 8 8 8 8 9 10 11 12 13 14 15 15 15 16 17 18 18 18 18 19 19 20 20 20 20 21 22 23 25 26 26 26 25 23 22 22 22 23 23 24 26 25 25 25 25 26 25 25
Wind_Direction
97 98 103 100 102 108 105 92 80 80 85 89 95 98 100 101 102 101 102 104 105 108 111 111 110 108 107 106 110 116 117 108 100 94 95 95 93 89 84 83 87 92 91 89 86 89 94 95 93 94 101 107 105 97 91 88 90 92 91 91 92 96 99 99 98 95 94 93 91 92 92 90 87 86 87 85 85 89 99 116 130 140 151 158 159
99 100 100 98 103 106 100 87 81 85 92 96 99 101 102 102 103 102 103 105 108 112 113 112 110 111 112 115 118 118 111 103 98 94 95 93 89 84 82 86 90 89 85 85 87 94 101 102 101 101 101 105 106 102 95 88 88 92 92 90 89 96 104 108 108 105 104 101 97 95 93 92 88 84 83 82 82 87 97 108 124 133 142 150 154
102 101 100 99 103 103 96 88 89 94 99 101 104 104 103 103 103 104 106 108 112 113 112 112 113 118 120 120 116 110 104 96 91 87 86 84 82 81 81 87 88 83 79 82 87 95 104 103 102 103 97 92 93 96 96 90 86 88 89 86 85 94 107 116 116 113 110 104 98 95 93 89 87 84 81 81 81 86 94 104 116 128 135 142 148
107 104 100 99 99 99 96 94 98 101 103 104 105 105 103 103 105 107 109 112 113 114 114 115 118 121 120 115 109 103 94 85 81 79 80 81 82 85 84 84 82 79 78 81 85 92 96 94 96 101 99 91 85 86 91 91 86 83 85 84 84 93 108 117 118 115 110 104 99 94 91 87 86 85 81 80 82 84 91 99 109 121 131 137 142
111 110 106 102 100 101 102 103 106 107 106 105 105 105 105 106 107 110 113 115 116 117 117 117 117 118 116 109 103 95 85 80 78 79 83 88 92 94 93 88 84 82 83 85 87 90 91 89 88 93 98 94 83 78 82 86 85 83 86 92 88 91 106 111 110 113 110 105 102 96 90 87 86 85 84 84 83 85 90 97 105 115 126 134 139
114 115 113 109 106 107 109 109 111 111 109 108 108 109 110 110 112 115 117 118 119 119 116 113 113 113 110 105 101 90 82 81 82 88 94 102 107 108 110 101 94 90 90 90 92 93 93 92 90 89 92 93 90 80 77 81 83 83 86 100 99 92 101 108 105 108 109 106 104 101 94 89 87 86 88 89 89 87 90 96 104 112 120 129 135
115 116 115 113 111 111 112 111 112 112 112 112 112 112 112 113 115 118 119 121 121 117 111 110 110 109 107 103 95 86 85 90 96 100 104 116 117 117 119 108 99 97 97 94 97 99 96 94 92 89 87 89 95 94 86 85 85 82 81 95 109 103 102 112 112 106 104 103 104 103 100 98 94 92 90 91 93 92 92 93 101 109 116 123 129
114 115 113 113 113 112 112 111 111 112 113 114 113 111 111 115 118 121 122 123 118 110 106 106 107 106 101 95 91 93 98 103 103 104 112 118 113 112 108 98 96 99 100 100 99 101 100 95 90 87 87 87 88 90 90 91 90 86 80 88 110 122 118 124 126 112 103 101 102 102 102 104 102 100 97 94 94 96 96 94 96 104 112 119 123
114 113 113 112 112 111 111 112 112 112 113 115 113 111 115 120 123 124 124 118 107 99 98 100 102 101 98 101 104 103 104 105 106 109 113 108 102 103 96 87 87 93 97 100 100 98 98 96 90 84 85 87 84 84 85 88 90 93 86 88 109 130 137 141 139 125 111 102 99 101 101 98 101 111 112 107 102 98 97 97 96 98 104 111 117
115 115 115 114 114 112 112 113 112 110 112 114 110 110 114 119 121 121 114 101 92 89 92 97 101 103 106 109 106 104 106 107 111 112 107 98 94 95 94 83 63 52 51 65 81 88 95 96 91 87 87 89 88 86 85 88 92 100 93 90 105 130 149 159 154 142 120 104 99 102 101 94 95 110 122 126 121 111 103 101 101 97 98 102 108
120 119 119 117 116 115 116 114 111 110 111 109 104 104 109 115 116 107 96 88 88 92 98 101 104 106 109 108 107 109 113 115 117 112 103 93 90 90 86 73 57 43 32 27 33 56 78 92 93 90 89 88 84 79 80 84 93 108 103 91 92 123 152 166 161 152 137 117 107 106 106 98 93 98 109 123 130 132 123 116 115 108 103 102 102
126 124 121 120 119 120 121 117 115 113 109 103 100 103 111 113 106 95 90 91 96 101 102 101 102 105 111 115 116 118 122 123 118 105 95 88 86 85 78 68 60 50 39 33 37 48 58 71 84 89 85 78 73 67 68 76 89 116 116 101 88 103 140 165 165 158 148 138 122 107 108 105 97 96 96 101 114 129 129 131 131 122 120 118 111
132 127 123 123 125 126 124 122 120 112 106 103 104 109 111 107 99 96 97 101 103 103 102 102 105 114 122 123 121 122 122 115 104 93 84 80 79 75 70 65 61 54 46 42 45 50 57 62 66 77 79 67 59 53 51 56 79 113 108 106 104 89 116 156 167 170 159 145 130 109 108 108 101 99 97 96 97 104 120 135 138 135 143 145 138
135 129 124 127 130 127 124 123 118 109 107 107 107 109 107 103 101 101 104 106 107 108 106 108 117 126 128 126 124 119 109 98 90 87 80 73 71 69 68 66 67 64 58 54 54 57 60 60 61 70 76 63 52 50 43 27 10 349 59 94 116 91 103 145 163 177 176 158 141 125 114 109 103 98 97 99 98 98 110 129 135 139 150 163 168
128 125 124 131 131 125 121 119 115 111 109 107 107 108 107 105 103 104 107 111 114 115 114 118 125 129 128 126 120 110 99 91 86 81 75 72 71 72 72 72 72 70 65 61 59 60 61 60 61 66 67 61 53 48 44 25 10 2 3 25 59 79 94 136 155 174 186 174 158 156 136 114 106 98 96 102 105 105 105 117 130 134 141 157 174
122 117 119 127 126 121 119 119 118 114 110 107 108 110 109 105 102 105 111 117 120 121 120 122 126 126 124 120 112 103 95 88 82 78 75 74 74 74 74 73 72 70 68 65 62 62 62 62 63 65 64 60 53 45 40 29 23 20 17 20 28 58 101 148 156 170 191 191 180 183 179 151 121 103 99 102 105 113 112 114 125 132 136 145 155
122 106 112 121 119 116 119 120 115 111 109 109 111 112 109 104 103 107 113 119 124 125 124 124 124 122 118 113 106 99 94 88 82 80 79 77 75 73 73 72 70 70 69 68 66 64 64 65 66 66 65 61 56 49 40 34 32 27 22 22 23 25 69 182 178 169 189 202 204 204 208 205 178 140 120 106 101 111 119 121 124 134 141 143 147
116 99 112 116 114 114 117 115 110 109 110 113 115 114 109 104 105 108 115 122 127 128 126 126 123 119 114 109 102 96 93 89 84 81 80 78 76 74 74 73 71 70 69 69 68 67 66 66 67 66 64 60 56 50 43 41 42 39 33 29 31 29 18 38 184 184 186 197 209 212 222 239 235 214 203 203 118 106 117 127 131 141 153 151 154
84 89 113 114 111 114 115 112 111 112 114 116 116 113 108 105 107 112 118 125 128 128 126 125 121 117 114 107 100 96 93 88 84 80 78 77 76 74 74 73 73 72 70 70 70 70 70 69 69 67 64 62 60 56 54 56 56 55 53 49 49 51 52 61 79 96 140 168 193 201 221 252 253 236 225 232 238 230 177 141 143 156 196 183 170
75 97 118 118 116 118 116 114 114 115 116 115 113 109 106 107 110 114 120 125 127 126 124 121 119 116 111 104 97 93 90 87 83 79 76 74 72 71 71 72 72 73 73 73 73 73 72 72 71 66 63 64 63 61 62 63 62 60 60 58 58 60 66 72 73 76 86 101 132 176 224 254 254 240 232 235 237 241 252 254 227 192 211 226 206
125 122 126 125 124 121 118 116 116 115 114 112 110 108 107 109 112 116 120 123 124 124 122 119 118 114 107 100 95 92 90 87 83 79 76 73 72 70 70 71 72 74 75 76 76 75 73 73 73 68 63 65 67 65 64 61 58 57 57 58 60 63 69 76 76 74 74 76 82 80 27 302 267 251 251 256 257 262 264 259 256 243 229 233 233
142 138 133 130 129 123 118 116 116 115 114 113 111 111 112 113 115 118 120 122 124 123 121 118 116 110 105 101 97 94 92 89 86 82 79 76 74 73 72 73 74 74 75 76 76 75 75 74 74 69 63 64 67 68 65 62 60 57 55 55 57 60 66 72 76 76 77 80 81 76 58 10 318 295 284 278 276 274 270 264 258 253 247 242 241
150 145 138 134 129 123 119 116 116 116 117 116 115 115 116 117 117 119 121 123 125 124 122 119 115 111 107 103 100 97 94 92 89 86 84 81 79 78 76 75 74 73 73 74 75 74 74 73 73 70 63 59 61 65 65 63 62 61 59 57 55 56 59 63 66 68 69 70 72 73 68 40 350 334 309 288 283 277 270 266 260 255 252 249 248
152 146 139 135 129 122 119 116 117 118 120 120 119 119 119 120 121 121 123 124 126 127 125 121 117 113 110 107 104 101 98 95 93 91 89 86 83 80 76 73 70 69 68 69 70 71 71 71 71 71 68 61 55 58 62 60 58 59 59 58 56 54 54 56 56 55 56 57 57 56 53 44 27 8 339 313 293 282 274 268 263 259 254 252 253
152 145 139 134 127 122 118 116 117 118 122 124 124 124 123 124 124 125 125 126 128 130 127 122 117 114 112 111 109 107 105 102 99 96 93 89 83 78 73 68 65 63 61 63 65 67 68 69 68 67 68 66 59 52 51 53 53 51 52 54 53 51 49 49 50 48 48 49 49 49 47 43 37 29 14 359 328 295 284 276 270 266 261 257 255
152 144 139 134 127 123 119 116 116 117 122 126 128 128 128 129 128 127 127 128 130 131 128 123 118 115 113 112 111 110 108 106 102 98 94 89 83 77 73 69 65 62 58 57 58 60 62 62 62 62 63 64 62 57 51 48 46 43 43 47 50 51 46 41 41 42 42 42 41 41 41 39 37 34 28 24 12 337 317 305 293 286 278 270 263
151 145 140 134 130 126 121 118 116 118 122 126 129 131 132 133 131 129 129 131 132 131 129 125 121 118 115 113 112 110 107 104 101 99 93 88 82 78 76 73 69 65 60 56 54 53 55 56 56 55 56 56 56 56 57 54 50 45 39 38 44 53 50 39 33 34 34 36 34 32 32 32 31 30 29 29 26 15 5 359 350 333 309 290 277
152 147 142 135 132 129 125 122 120 122 125 127 130 134 135 134 132 130 130 131 132 133 130 128 125 122 119 117 113 110 106 102 100 98 94 90 85 78 74 72 69 64 60 55 51 48 49 52 52 51 50 53 52 48 51 56 55 53 46 37 36 45 53 43 29 28 27 27 30 28 24 25 25 22 23 25 26 25 24 25 26 21 2 319 290
154 149 142 136 133 131 130 128 126 125 127 129 131 134 134 133 132 131 129 129 131 132 130 128 127 124 122 119 116 112 106 102 99 95 92 89 83 78 73 70 66 62 58 54 51 47 45 44 47 50 49 51 53 46 41 48 50 49 50 46 34 31 43 45 29 23 22 19 21 24 19 19 20 16 15 18 21 25 28 31 33 33 33 24 343
156 151 143 138 137 135 137 136 132 130 129 131 133 134 133 131 132 132 130 129 129 130 129 126 123 121 119 116 114 111 108 104 97 89 85 83 81 78 75 70 64 60 57 53 48 44 39 37 37 39 41 43 48 47 36 34 39 38 40 44 39 26 26 35 34 21 18 13 8 16 15 11 13 11 8 8 12 17 24 30 30 32 38 43 37
157 151 144 142 142 143 145 143 138 135 133 134 136 136 135 132 131 131 132 132 131 130 128 125 121 117 115 112 109 107 105 99 94 91 86 82 79 78 74 70 65 60 56 50 45 40 35 33 29 24 26 29 33 42 38 26 26 31 32 34 36 32 20 21 31 26 18 11 360 8 11 5 7 5 3 0 1 5 12 22 25 24 31 37 40
159 153 148 147 148 150 150 148 145 141 136 134 135 138 139 137 134 132 134 135 134 133 131 128 122 117 114 110 107 104 101 97 97 96 91 86 82 79 76 72 68 61 54 47 39 35 32 30 25 17 15 17 19 27 31 21 14 22 28 25 23 28 24 17 20 21 18 10 2 9 6 2 2 357 356 353 354 356 360 13 19 16 15 19 27
161 155 152 153 152 153 153 152 149 144 139 135 135 138 141 142 139 137 137 137 135 135 134 131 127 122 117 112 106 102 101 102 102 94 89 88 84 81 80 75 65 55 43 33 26 25 26 24 20 15 11 10 11 15 18 12 5 12 20 19 15 19 22 17 14 12 10 6 7 13 6 360 359 353 351 346 347 351 354 5 12 10 4 4 12
163 158 156 156 154 155 156 156 153 149 145 140 139 140 143 144 141 141 140 139 137 136 135 134 134 131 124 119 113 107 103 104 102 96 89 86 83 80 78 71 58 44 31 23 18 16 15 15 13 12 8 5 4 6 9 4 359 5 11 10 9 15 19 14 11 9 6 4 7 7 2 360 354 347 348 344 343 345 352 2 6 5 1 359 1
168 164 161 159 158 160 160 159 156 154 150 145 143 142 144 144 142 143 143 144 144 143 141 139 137 133 129 127 119 111 102 98 97 92 84 81 78 73 65 56 46 35 26 19 14 10 6 6 6 4 3 1 358 357 360 359 356 358 2 3 1 6 16 15 10 4 3 5 6 2 357 359 353 345 346 343 342 342 349 1 5 2 358 359 357
174 170 166 164 164 165 161 157 152 149 149 148 147 146 146 146 146 148 148 152 153 150 146 142 135 128 130 128 118 111 99 93 92 85 78 76 69 55 45 34 27 23 21 15 7 3 358 357 357 356 355 355 355 352 352 355 353 352 355 356 354 357 7 14 13 6 1 360 3 6 1 0 356 347 347 346 343 342 344 354 4 3 357 355 352
179 175 173 170 169 168 161 154 148 144 144 146 148 150 150 151 153 153 153 157 158 154 147 142 136 128 127 123 119 113 101 97 92 80 73 68 48 31 24 15 12 9 8 5 359 355 351 350 350 351 349 348 351 349 346 349 350 347 347 348 347 349 355 5 12 10 7 3 3 10 9 4 358 351 351 351 343 337 335 341 352 358 355 350 345
184 183 180 176 173 169 163 158 152 149 148 149 151 154 155 154 156 158 156 157 160 158 150 143 140 134 127 117 113 109 104 103 85 64 55 44 26 14 8 4 1 357 355 354 351 349 345 344 345 348 346 344 346 345 342 343 344 342 341 341 340 340 343 351 2 5 9 12 9 8 6 2 1 359 355 351 342 330 325 325 328 339 343 340 335
191 191 186 182 178 172 167 165 161 161 161 161 160 159 161 157 155 158 157 156 159 162 156 148 143 137 130 116 111 111 105 90 69 47 27 14 5 360 354 351 350 347 347 346 343 341 340 340 341 342 342 342 341 339 337 336 336 338 338 336 334 334 336 340 349 352 359 10 11 4 359 354 358 3 356 346 339 326 317 309 306 312 317 322 322
196 196 191 186 184 179 174 176 174 173 174 176 172 167 166 163 159 160 159 158 160 164 166 155 140 132 125 113 107 104 89 66 46 25 7 357 350 347 344 343 343 340 340 339 336 334 335 336 337 336 337 340 337 333 331 329 329 332 334 333 332 330 330 335 339 338 343 355 358 355 352 347 350 357 355 345 334 324 311 299 294 295 296 303 309
199 197 194 191 190 189 186 186 187 187 188 188 184 176 172 169 169 170 167 163 161 165 172 164 139 129 122 109 96 71 51 28 12 1 354 349 342 339 338 339 338 336 337 336 332 332 333 335 336 334 334 335 332 328 325 324 324 326 326 326 327 326 326 331 333 329 332 339 343 344 343 342 343 344 347 344 334 323 309 298 292 288 288 290 293
198 197 196 196 197 199 199 197 196 196 199 200 194 185 180 177 176 178 174 169 167 170 178 173 148 138 136 122 100 45 15 358 353 350 345 342 338 335 335 336 334 333 336 335 333 333 335 337 338 335 332 330 330 329 324 322 323 321 318 317 320 321 322 326 326 324 326 330 333 333 332 334 335 334 336 336 333 324 309 299 292 287 284 283 279
195 195 196 198 201 206 212 212 207 203 205 209 205 193 187 185 183 181 178 177 179 180 182 185 168 153 156 153 135 343 341 341 342 341 338 335 334 334 333 333 334 334 337 336 334 336 337 337 335 331 329 327 327 325 321 320 319 315 312 313 316 317 318 320 320 321 324 326 327 327 327 327 326 325 325 325 328 324 314 301 289 283 280 278 276
195 195 196 200 204 209 218 226 226 216 214 219 216 206 198 195 191 186 184 186 190 191 191 196 199 195 200 229 287 317 329 334 335 333 333 333 335 336 334 334 337 337 340 342 341 341 339 336 334 331 329 326 326 324 322 318 312 308 308 310 311 311 312 313 316 318 320 322 324 325 326 324 318 317 317 319 323 322 315 305 291 283 280 278 275
199 199 199 203 208 213 220 232 243 236 227 227 225 221 214 208 203 197 196 197 200 202 204 212 221 233 254 278 299 315 325 328 328 328 331 335 339 338 336 338 341 343 347 350 349 349 347 344 340 337 334 330 330 329 325 319 313 311 310 310 309 308 309 311 312 314 314 317 319 319 320 318 313 311 311 313 316 316 311 304 295 287 283 282 279
207 207 205 206 211 216 219 228 243 247 241 234 233 232 228 222 217 213 209 207 210 214 218 228 238 253 270 286 301 311 319 321 323 327 332 337 340 337 336 341 343 345 348 348 350 352 352 352 347 341 337 333 332 330 326 323 320 319 318 317 314 311 311 311 310 310 310 311 312 312 313 312 309 308 306 306 308 307 304 299 295 290 284 281 281
221 221 219 216 216 219 221 225 235 245 247 240 235 239 240 234 229 227 224 222 222 225 231 240 248 261 274 286 299 308 312 316 322 326 328 332 333 332 335 340 339 338 341 342 346 350 351 351 346 340 336 334 334 332 329 327 324 323 321 318 315 313 312 311 310 309 308 307 308 309 308 308 308 306 304 304 304 302 298 296 294 291 285 280 278
232 237 237 234 229 228 228 229 231 239 246 245 237 237 243 243 239 236 234 235 235 235 240 249 255 263 273 284 293 299 303 309 317 319 316 319 323 326 328 329 330 332 336 337 338 341 343 342 338 334 333 333 332 330 328 326 324 322 320 316 313 312 312 310 308 307 305 306 307 307 306 305 305 306 306 305 301 297 292 290 290 291 289 284 279
238 241 242 241 240 238 239 239 237 236 239 242 239 236 240 245 244 241 240 242 245 245 248 256 262 268 275 285 290 292 297 304 310 307 303 306 311 316 318 322 328 331 330 328 329 332 332 332 329 327 328 327 324 320 318 317 316 315 313 312 311 310 309 307 305 303 303 304 307 307 305 302 301 303 306 305 302 298 293 288 288 290 290 287 284
232 235 240 244 247 247 248 249 249 246 243 243 243 241 238 241 244 244 242 244 248 251 253 258 263 269 276 284 288 289 294 299 300 294 290 295 303 308 314 322 327 326 323 322 323 323 322 321 320 321 322 319 314 309 308 307 307 307 306 307 308 307 305 303 302 301 302 303 304 304 303 302 301 299 301 302 301 300 298 293 288 286 285 285 285
231 233 237 241 245 248 249 251 256 258 257 256 255 253 247 242 242 244 245 244 245 248 252 255 260 267 274 280 285 287 290 290 285 279 279 286 297 304 311 318 319 318 317 317 317 317 317 317 318 319 317 312 308 304 304 305 306 305 304 304 305 304 303 304 305 305 304 305 303 301 300 302 303 299 298 297 294 292 290 290 288 285 283 283 284
Height
5908 5907 5907 5907 5907 5908 5908 5907 5908 5909 5909 5909 5910 5910 5909 5909 5909 5909 5910 5910 5910 5910 5911 5912 5912 5911 5911 5911 5911 5911 5911 5911 5911 5911 5911 5910 5910 5910 5909 5909 5910 5910 5909 5908 5908 5908 5908 5908 5908 5907 5907 5907 5907 5907 5908 5908 5908 5908 5909 5909 5909 5909 5909 5909 5909 5908 5908 5908 5908 5908 5907 5908 5908 5908 5908 5908 5908 5908 5908 5908 5909 5909 5910 5910 5911
5908 5908 5908 5908 5908 5909 5909 5909 5909 5910 5910 5910 5910 5910 5910 5910 5910 5910 5910 5910 5911 5911 5912 5913 5913 5912 5912 5911 5911 5912 5912 5911 5911 5911 5911 5911 5911 5910 5910 5910 5910 5910 5910 5909 5909 5909 5909 5909 5908 5908 5908 5907 5907 5908 5909 5909 5909 5909 5909 5909 5910 5910 5910 5910 5909 5909 5909 5908 5908 5908 5908 5908 5908 5908 5908 5908 5909 5909 5908 5908 5909 5909 5910 5910 5911
5909 5909 5909 5909 5910 5909 5910 5910 5911 5911 5911 5911 5911 5911 5911 5910 5910 5911 5911 5911 5912 5913 5913 5914 5914 5913 5912 5912 5912 5912 5912 5912 5912 5911 5912 5912 5911 5911 5911 5911 5911 5911 5910 5910 5910 5910 5910 5909 5909 5908 5908 5908 5908 5908 5909 5909 5909 5909 5910 5910 5910 5910 5910 5910 5910 5910 5909 5909 5909 5908 5908 5908 5908 5908 5908 5908 5909 5909 5909 5909 5909 5909 5910 5910 5911
5909 5910 5910 5910 5910 5910 5911 5911 5912 5912 5912 5912 5912 5911 5911 5911 5911 5912 5912 5912 5913 5914 5914 5915 5914 5913 5913 5913 5913 5912 5912 5912 5912 5912 5912 5912 5912 5912 5912 5912 5912 5911 5910 5910 5910 5910 5910 5910 5909 5909 5909 5909 5909 5909 5909 5909 5909 5910 5911 5911 5911 5911 5911 5911 5910 5910 5910 5909 5909 5909 5908 5908 5908 5908 5908 5908 5909 5909 5909 5909 5909 5909 5910 5910 5911
5910 5910 5911 5911 5911 5911 5912 5912 5913 5913 5913 5913 5913 5912 5912 5912 5912 5913 5913 5913 5914 5915 5915 5915 5914 5914 5913 5913 5913 5913 5913 5913 5913 5913 5913 5913 5913 5912 5912 5912 5912 5911 5911 5911 5911 5911 5910 5910 5910 5910 5910 5910 5910 5910 5909 5909 5910 5910 5911 5911 5911 5911 5911 5911 5911 5910 5910 5910 5909 5909 5909 5909 5909 5909 5909 5909 5909 5910 5910 5910 5910 5910 5910 5911 5911
5911 5911 5911 5912 5912 5912 5913 5913 5913 5913 5913 5913 5913 5913 5913 5913 5914 5914 5914 5914 5915 5915 5915 5915 5915 5914 5914 5913 5913 5913 5913 5913 5914 5914 5914 5913 5913 5913 5913 5912 5912 5911 5911 5911 5911 5911 5910 5910 5910 5910 5910 5910 5910 5910 5910 5910 5910 5911 5911 5911 5911 5911 5911 5911 5911 5911 5910 5910 5910 5910 5909 5909 5909 5910 5910 5909 5910 5910 5910 5911 5911 5911 5911 5911 5912
5911 5912 5912 5912 5912 5913 5913 5913 5913 5913 5913 5914 5914 5914 5914 5914 5915 5915 5915 5915 5915 5916 5916 5915 5915 5914 5914 5913 5913 5914 5914 5914 5914 5914 5914 5914 5913 5913 5913 5913 5912 5912 5912 5912 5912 5911 5911 5910 5910 5910 5910 5910 5910 5910 5910 5910 5911 5911 5911 5911 5911 5911 5911 5911 5911 5911 5911 5910 5910 5910 5910 5910 5910 5910 5910 5910 5910 5910 5911 5911 5911 5911 5911 5911 5912
5912 5912 5912 5913 5913 5913 5914 5914 5914 5914 5914 5914 5914 5914 5915 5915 5915 5915 5915 5915 5916 5916 5916 5915 5914 5914 5914 5914 5914 5914 5915 5915 5915 5914 5914 5914 5914 5913 5913 5913 5912 5912 5912 5912 5912 5911 5911 5911 5910 5910 5911 5910 5910 5910 5911 5911 5911 5911 5911 5911 5911 5911 5911 5911 5911 5911 5911 5911 5911 5910 5910 5910 5910 5911 5911 5911 5911 5911 5911 5911 5912 5912 5912 5912 5912
5913 5913 5913 5913 5913 5914 5914 5914 5914 5914 5914 5915 5915 5915 5916 5916 5916 5916 5916 5916 5916 5916 5915 5915 5914 5914 5914 5914 5914 5915 5915 5915 5915 5914 5914 5914 5914 5914 5913 5912 5912 5912 5912 5912 5912 5912 5911 5911 5911 5911 5911 5911 5911 5911 5911 5912 5912 5911 5911 5911 5911 5910 5911 5911 5911 5911 5911 5911 5911 5911 5911 5911 5911 5911 5911 5911 5911 5911 5911 5911 5912 5912 5912 5912 5913
5913 5913 5913 5913 5914 5914 5914 5915 5915 5915 5915 5915 5915 5915 5916 5916 5916 5916 5916 5916 5916 5916 5915 5915 5915 5914 5914 5914 5915 5915 5915 5915 5914 5915 5914 5914 5914 5914 5913 5913 5912 5912 5912 5912 5912 5911 5911 5911 5911 5911 5911 5911 5911 5911 5912 5912 5912 5911 5910 5910 5911 5911 5910 5910 5910 5911 5911 5911 5911 5911 5911 5911 5911 5911 5911 5911 5911 5911 5911 5911 5912 5912 5912 5913 5913
5914 5914 5914 5914 5914 5914 5915 5915 5915 5915 5916 5916 5915 5915 5916 5916 5916 5916 5916 5916 5916 5916 5915 5915 5915 5915 5915 5915 5915 5915 5915 5914 5914 5915 5914 5914 5914 5914 5913 5913 5912 5912 5912 5912 5911 5911 5911 5911 5911 5911 5911 5911 5911 5912 5912 5912 5912 5911 5911 5910 5911 5911 5911 5911 5911 5911 5911 5912 5912 5912 5912 5911 5911 5911 5911 5911 5911 5911 5911 5912 5912 5912 5912 5913 5913
5915 5915 5915 5915 5915 5915 5915 5915 5916 5916 5916 5916 5916 5916 5916 5916 5917 5917 5916 5916 5916 5916 5916 5915 5915 5915 5915 5915 5915 5915 5915 5914 5914 5914 5914 5914 5914 5914 5913 5913 5913 5912 5912 5912 5911 5911 5911 5911 5911 5911 5911 5911 5912 5912 5912 5912 5912 5911 5911 5911 5910 5911 5911 5911 5911 5911 5912 5912 5912 5912 5912 5912 5912 5911 5911 5911 5911 5911 5911 5911 5912 5912 5912 5912 5913
5916 5916 5915 5915 5915 5915 5916 5916 5917 5917 5917 5916 5916 5916 5917 5917 5917 5917 5917 5916 5916 5916 5916 5916 5915 5915 5915 5915 5915 5915 5915 5914 5914 5914 5914 5914 5914 5914 5913 5913 5913 5913 5912 5912 5912 5911 5911 5911 5911 5912 5912 5912 5912 5912 5912 5912 5911 5911 5911 5911 5910 5910 5910 5911 5911 5911 5911 5912 5912 5912 5912 5912 5912 5912 5912 5911 5911 5911 5911 5911 5911 5911 5912 5912 5913
5916 5916 5916 5915 5915 5916 5916 5917 5917 5917 5917 5917 5916 5916 5917 5917 5917 5917 5917 5916 5916 5916 5916 5916 5916 5915 5915 5915 5915 5915 5915 5915 5915 5915 5915 5914 5914 5914 5913 5913 5913 5913 5913 5913 5912 5912 5912 5912 5912 5912 5912 5912 5912 5912 5912 5911 5911 5911 5911 5911 5911 5910 5910 5911 5911 5911 5911 5912 5912 5912 5913 5912 5912 5912 5912 5912 5912 5911 5912 5911 5911 5911 5912 5912 5913
5916 5916 5916 5916 5916 5916 5916 5917 5918 5918 5917 5917 5916 5917 5917 5917 5917 5917 5917 5916 5916 5916 5916 5916 5916 5916 5915 5915 5916 5916 5916 5915 5915 5915 5915 5914 5914 5914 5914 5914 5914 5913 5913 5913 5913 5913 5912 5912 5912 5912 5912 5912 5912 5912 5911 5911 5911 5911 5911 5912 5912 5912 5912 5912 5912 5912 5912 5912 5912 5913 5913 5913 5912 5912 5912 5912 5912 5912 5912 5912 5912 5911 5912 5912 5913
5916 5916 5916 5916 5916 5916 5917 5918 5918 5918 5917 5917 5916 5917 5917 5917 5917 5917 5917 5916 5916 5916 5917 5917 5916 5916 5916 5916 5917 5917 5916 5916 5916 5916 5915 5915 5915 5914 5914 5914 5914 5914 5914 5914 5914 5913 5913 5913 5913 5912 5912 5912 5912 5912 5911 5911 5911 5911 5911 5912 5912 5912 5912 5912 5912 5912 5912 5912 5912 5913 5913 5913 5912 5912 5912 5912 5912 5912 5913 5913 5913 5912 5912 5912 5913
5917 5917 5917 5916 5916 5917 5917 5917 5917 5917 5917 5916 5917 5917 5917 5917 5917 5917 5917 5917 5917 5917 5917 5918 5917 5917 5917 5917 5917 5917 5917 5917 5917 5916 5916 5916 5915 5915 5915 5915 5915 5915 5915 5915 5915 5914 5914 5913 5913 5913 5913 5912 5912 5912 5911 5911 5911 5911 5911 5911 5911 5911 5911 5912 5912 5912 5912 5912 5912 5912 5913 5913 5912 5912 5913 5913 5913 5913 5913 5913 5914 5913 5913 5913 5913
5917 5917 5916 5916 5916 5916 5917 5917 5917 5917 5917 5917 5917 5917 5917 5917 5917 5917 5917 5917 5918 5918 5918 5918 5918 5918 5918 5918 5918 5919 5919 5918 5918 5917 5917 5917 5917 5917 5917 5916 5916 5916 5917 5917 5916 5915 5915 5914 5914 5914 5913 5913 5913 5913 5912 5912 5911 5911 5911 5911 5910 5910 5910 5911 5911 5911 5911 5911 5911 5912 5912 5913 5913 5913 5913 5913 5913 5913 5913 5913 5913 5914 5914 5913 5913
5917 5916 5916 5916 5916 5916 5917 5917 5917 5917 5917 5917 5917 5918 5918 5918 5918 5918 5918 5918 5919 5919 5919 5919 5919 5919 5919 5919 5919 5920 5920 5919 5919 5918 5918 5918 5918 5918 5918 5918 5918 5918 5918 5918 5917 5917 5916 5916 5916 5915 5914 5914 5915 5914 5913 5913 5912 5911 5911 5911 5911 5911 5910 5910 5911 5911 5911 5911 5911 5911 5911 5912 5913 5913 5913 5913 5913 5913 5914 5913 5913 5914 5914 5914 5914
5917 5916 5916 5916 5916 5917 5917 5917 5917 5917 5918 5918 5918 5918 5918 5918 5918 5919 5919 5919 5920 5920 5920 5920 5920 5921 5921 5921 5921 5921 5921 5920 5920 5919 5919 5919 5919 5919 5919 5919 5919 5919 5920 5920 5919 5918 5918 5917 5917 5916 5915 5916 5916 5916 5915 5914 5913 5913 5912 5912 5911 5911 5911 5911 5911 5911 5911 5911 5911 5911 5912 5912 5913 5913 5913 5913 5913 5913 5914 5914 5913 5914 5914 5914 5914
5917 5917 5917 5917 5917 5918 5918 5918 5918 5918 5918 5918 5918 5918 5919 5919 5919 5919 5920 5920 5921 5921 5921 5922 5922 5922 5922 5922 5922 5922 5922 5921 5921 5920 5920 5920 5920 5920 5920 5920 5921 5921 5922 5922 5921 5920 5919 5919 5919 5918 5917 5917 5918 5917 5916 5916 5915 5914 5914 5913 5912 5912 5912 5912 5912 5912 5912 5912 5912 5912 5912 5913 5913 5913 5914 5914 5914 5913 5914 5914 5913 5913 5913 5914 5914
5917 5917 5917 5918 5918 5918 5918 5918 5918 5918 5918 5919 5919 5919 5920 5920 5920 5920 5921 5921 5922 5922 5923 5923 5923 5923 5923 5923 5923 5923 5923 5922 5922 5922 5922 5921 5922 5922 5922 5922 5922 5923 5923 5923 5923 5922 5921 5920 5920 5920 5919 5919 5919 5919 5918 5918 5917 5916 5915 5915 5914 5913 5913 5912 5912 5912 5912 5913 5913 5913 5913 5913 5913 5914 5914 5914 5914 5913 5913 5913 5913 5913 5913 5913 5914
5917 5917 5918 5918 5919 5919 5919 5919 5919 5919 5919 5919 5920 5920 5920 5921 5921 5922 5922 5923 5923 5924 5924 5924 5924 5924 5924 5924 5924 5924 5924 5924 5923 5923 5923 5923 5923 5924 5924 5924 5924 5925 5925 5925 5925 5924 5923 5922 5921 5921 5921 5920 5920 5920 5920 5919 5918 5918 5917 5916 5916 5915 5914 5914 5913 5913 5913 5913 5913 5913 5913 5913 5913 5913 5913 5913 5913 5913 5913 5912 5912 5913 5913 5913 5913
5917 5918 5918 5918 5919 5919 5919 5919 5919 5919 5920 5920 5920 5921 5921 5922 5922 5923 5923 5924 5924 5925 5925 5925 5925 5925 5925 5925 5925 5925 5925 5925 5925 5925 5925 5925 5925 5925 5925 5925 5925 5926 5926 5927 5926 5926 5925 5924 5923 5923 5923 5922 5921 5921 5921 5920 5919 5919 5919 5918 5917 5916 5916 5915 5915 5914 5914 5913 5913 5913 5913 5913 5913 5913 5912 5912 5912 5912 5912 5912 5912 5912 5913 5913 5913
5917 5918 5918 5919 5919 5919 5919 5919 5920 5920 5920 5921 5921 5922 5922 5923 5923 5924 5924 5925 5925 5926 5926 5926 5926 5926 5926 5926 5926 5926 5926 5926 5926 5926 5926 5926 5926 5926 5926 5926 5926 5926 5927 5927 5927 5927 5927 5926 5925 5925 5924 5924 5923 5922 5922 5921 5920 5920 5919 5919 5918 5917 5917 5917 5916 5916 5915 5914 5914 5914 5914 5913 5913 5912 5912 5912 5911 5911 5911 5911 5912 5912 5913 5913 5913
5917 5918 5918 5919 5919 5920 5920 5920 5920 5921 5921 5922 5922 5923 5923 5924 5924 5925 5925 5926 5926 5927 5927 5927 5927 5927 5927 5927 5927 5927 5927 5927 5927 5928 5928 5928 5928 5928 5928 5928 5927 5927 5928 5928 5928 5928 5928 5927 5927 5926 5925 5925 5924 5924 5923 5922 5921 5921 5920 5920 5919 5918 5918 5917 5917 5916 5916 5915 5915 5914 5914 5914 5913 5913 5912 5912 5911 5911 5911 5912 5912 5912 5913 5913 5913
5917 5918 5918 5919 5919 5920 5920 5921 5921 5921 5922 5923 5923 5923 5924 5925 5925 5926 5926 5927 5927 5927 5927 5927 5928 5928 5928 5928 5928 5928 5929 5929 5929 5929 5929 5929 5929 5929 5929 5929 5928 5928 5928 5928 5928 5929 5929 5928 5928 5927 5926 5926 5925 5925 5925 5924 5923 5922 5921 5921 5920 5920 5919 5918 5917 5917 5916 5916 5915 5915 5914 5914 5914 5913 5913 5912 5911 5911 5911 5912 5912 5912 5912 5912 5912
5917 5918 5918 5919 5919 5920 5920 5921 5922 5922 5923 5923 5924 5924 5925 5925 5926 5927 5927 5928 5928 5928 5928 5928 5929 5929 5929 5929 5929 5929 5930 5930 5930 5930 5930 5930 5930 5931 5930 5930 5929 5929 5929 5929 5929 5929 5929 5929 5929 5928 5927 5927 5927 5926 5926 5926 5925 5924 5923 5922 5921 5920 5920 5919 5918 5918 5917 5916 5916 5915 5915 5915 5914 5914 5913 5913 5912 5912 5913 5912 5912 5912 5911 5910 5910
5917 5918 5918 5919 5920 5920 5921 5922 5922 5923 5924 5924 5925 5925 5925 5926 5927 5927 5928 5928 5929 5929 5929 5929 5929 5930 5930 5930 5930 5930 5931 5931 5931 5931 5931 5931 5931 5931 5931 5930 5930 5930 5930 5930 5930 5930 5929 5929 5929 5929 5928 5928 5928 5927 5926 5926 5926 5925 5924 5923 5922 5921 5920 5920 5919 5918 5918 5917 5916 5916 5916 5915 5915 5914 5913 5913 5913 5913 5913 5913 5912 5911 5910 5909 5909
5917 5918 5918 5919 5920 5921 5922 5922 5923 5924 5924 5925 5925 5926 5926 5927 5927 5928 5928 5929 5929 5929 5930 5930 5930 5931 5931 5931 5931 5932 5932 5932 5932 5932 5932 5932 5932 5931 5931 5931 5931 5931 5931 5930 5930 5930 5930 5929 5929 5929 5929 5928 5928 5928 5927 5926 5926 5925 5925 5924 5923 5922 5920 5920 5920 5919 5918 5918 5917 5916 5916 5916 5915 5914 5914 5913 5913 5914 5913 5913 5912 5910 5910 5909 5909
5917 5918 5919 5919 5920 5921 5922 5923 5924 5924 5925 5925 5926 5926 5927 5927 5928 5928 5929 5929 5930 5930 5931 5931 5931 5932 5932 5932 5932 5933 5933 5932 5932 5932 5933 5933 5932 5932 5931 5931 5931 5931 5931 5931 5931 5930 5930 5929 5929 5929 5929 5928 5928 5928 5927 5926 5926 5926 5925 5924 5924 5923 5921 5920 5920 5920 5919 5918 5918 5917 5916 5916 5915 5915 5914 5913 5913 5913 5913 5913 5912 5911 5910 5909 5909
5917 5918 5919 5920 5921 5922 5923 5923 5924 5925 5925 5926 5926 5926 5927 5928 5928 5929 5929 5930 5930 5931 5931 5932 5932 5932 5933 5933 5933 5933 5933 5933 5934 5934 5933 5933 5933 5932 5932 5932 5932 5932 5932 5932 5931 5931 5930 5930 5929 5929 5928 5928 5927 5927 5927 5927 5926 5925 5925 5924 5924 5923 5922 5921 5920 5920 5919 5919 5918 5917 5917 5916 5916 5915 5914 5914 5913 5913 5913 5913 5912 5911 5910 5910 5909
5917 5918 5919 5920 5921 5922 5923 5924 5924 5925 5926 5926 5926 5927 5927 5928 5929 5930 5930 5930 5931 5931 5931 5932 5932 5933 5933 5933 5934 5934 5934 5934 5934 5934 5934 5934 5934 5933 5933 5933 5933 5933 5932 5932 5932 5931 5931 5930 5930 5929 5929 5928 5927 5926 5926 5927 5926 5925 5925 5924 5924 5923 5922 5921 5920 5920 5920 5919 5918 5917 5917 5916 5916 5915 5915 5914 5913 5913 5912 5912 5912 5911 5911 5910 5910
5917 5918 5919 5920 5921 5922 5923 5924 5924 5925 5925 5926 5926 5927 5928 5928 5929 5930 5930 5931 5931 5931 5932 5932 5933 5933 5934 5934 5934 5935 5935 5935 5935 5935 5934 5934 5934 5933 5934 5933 5933 5933 5933 5932 5932 5932 5931 5931 5930 5929 5929 5928 5927 5927 5926 5926 5926 5925 5925 5924 5924 5923 5922 5921 5920 5920 5920 5919 5918 5917 5917 5917 5916 5915 5915 5914 5914 5913 5912 5912 5912 5911 5911 5910 5910
5917 5918 5919 5920 5921 5922 5923 5924 5924 5925 5925 5926 5927 5927 5928 5928 5929 5930 5930 5931 5931 5932 5932 5933 5933 5933 5934 5934 5934 5935 5935 5935 5935 5935 5935 5934 5934 5934 5934 5934 5934 5933 5933 5932 5932 5932 5931 5931 5930 5929 5929 5928 5927 5927 5926 5926 5926 5925 5925 5924 5924 5923 5922 5921 5920 5920 5919 5918 5918 5918 5917 5917 5917 5916 5915 5915 5914 5913 5912 5912 5911 5911 5911 5910 5910
5917 5918 5919 5920 5921 5922 5923 5924 5924 5925 5925 5926 5927 5927 5928 5929 5929 5930 5930 5931 5931 5932 5932 5933 5933 5934 5934 5934 5934 5935 5935 5935 5935 5935 5935 5935 5935 5935 5934 5934 5934 5933 5933 5932 5932 5931 5931 5931 5930 5930 5929 5928 5928 5927 5926 5926 5925 5925 5924 5924 5924 5923 5922 5921 5920 5919 5919 5918 5918 5918 5918 5917 5916 5916 5915 5915 5914 5913 5912 5911 5911 5911 5911 5910 5909
5917 5918 5919 5920 5921 5922 5923 5924 5924 5925 5925 5926 5927 5927 5928 5929 5930 5930 5930 5931 5931 5931 5932 5933 5933 5934 5934 5935 5935 5935 5935 5935 5936 5935 5935 5935 5935 5935 5935 5934 5934 5933 5933 5932 5932 5931 5931 5930 5930 5929 5929 5928 5927 5927 5926 5926 5925 5925 5924 5924 5923 5923 5922 5922 5921 5920 5919 5918 5917 5917 5917 5916 5916 5915 5915 5914 5913 5912 5912 5911 5910 5910 5910 5910 5909
5917 5918 5919 5920 5921 5922 5923 5923 5924 5924 5925 5926 5927 5927 5928 5929 5930 5930 5931 5931 5931 5931 5932 5932 5933 5933 5934 5935 5935 5935 5936 5936 5936 5935 5935 5936 5935 5935 5935 5934 5934 5933 5932 5932 5931 5931 5930 5929 5929 5928 5928 5928 5927 5926 5926 5925 5925 5925 5924 5923 5923 5922 5922 5921 5921 5920 5919 5918 5917 5916 5916 5915 5915 5915 5914 5914 5913 5912 5911 5910 5910 5910 5910 5909 5908
5916 5918 5919 5920 5921 5922 5922 5923 5923 5924 5925 5926 5926 5927 5928 5929 5930 5930 5931 5931 5931 5931 5931 5932 5933 5933 5934 5935 5935 5936 5936 5936 5935 5935 5935 5935 5935 5935 5934 5934 5933 5933 5932 5931 5931 5930 5929 5929 5928 5927 5927 5927 5926 5926 5925 5925 5924 5924 5923 5923 5922 5922 5921 5921 5920 5919 5918 5918 5917 5916 5915 5915 5914 5914 5914 5913 5912 5912 5911 5910 5909 5909 5909 5908 5908
5916 5917 5919 5919 5920 5921 5922 5922 5923 5924 5925 5925 5926 5927 5928 5928 5929 5929 5930 5931 5931 5931 5931 5932 5932 5933 5934 5935 5935 5935 5935 5935 5935 5935 5935 5935 5934 5934 5933 5933 5932 5932 5931 5931 5930 5929 5928 5927 5927 5926 5926 5926 5925 5925 5924 5924 5923 5923 5922 5922 5921 5921 5921 5920 5919 5919 5918 5917 5917 5916 5916 5915 5914 5914 5913 5912 5912 5911 5911 5910 5909 5908 5908 5907 5907
5915 5917 5918 5919 5920 5921 5921 5922 5923 5924 5924 5925 5926 5927 5927 5928 5928 5929 5929 5930 5931 5931 5931 5931 5932 5933 5934 5934 5934 5935 5935 5935 5935 5935 5935 5934 5934 5933 5933 5932 5931 5931 5930 5929 5928 5928 5927 5926 5926 5925 5925 5925 5924 5924 5923 5923 5922 5921 5921 5921 5921 5920 5920 5919 5919 5918 5917 5917 5916 5915 5915 5914 5913 5913 5912 5912 5911 5910 5910 5909 5909 5908 5907 5907 5906
5915 5916 5917 5918 5919 5920 5921 5922 5923 5923 5924 5924 5925 5926 5927 5927 5928 5928 5928 5929 5930 5930 5930 5931 5932 5933 5934 5934 5934 5934 5934 5935 5935 5935 5934 5934 5933 5932 5932 5931 5930 5929 5928 5928 5927 5926 5926 5925 5925 5924 5924 5923 5923 5922 5922 5922 5921 5920 5920 5920 5920 5919 5918 5918 5918 5917 5916 5916 5916 5915 5914 5913 5912 5912 5912 5911 5911 5910 5909 5909 5908 5907 5907 5906 5905
5914 5916 5917 5918 5919 5920 5920 5921 5922 5923 5923 5924 5924 5925 5926 5927 5927 5927 5928 5928 5929 5929 5930 5930 5931 5932 5933 5934 5934 5934 5934 5934 5934 5934 5934 5933 5933 5932 5931 5930 5929 5928 5928 5927 5926 5925 5924 5924 5924 5923 5922 5922 5921 5921 5920 5920 5920 5919 5919 5918 5918 5918 5917 5917 5917 5916 5915 5915 5915 5915 5914 5913 5911 5911 5910 5910 5910 5909 5908 5908 5907 5907 5906 5905 5905
5914 5915 5917 5918 5919 5920 5920 5920 5921 5922 5923 5923 5924 5925 5925 5926 5926 5927 5927 5928 5928 5929 5929 5930 5931 5931 5932 5933 5933 5933 5934 5934 5933 5933 5933 5932 5932 5931 5930 5930 5929 5928 5927 5926 5926 5925 5924 5923 5923 5922 5921 5921 5920 5920 5919 5919 5918 5918 5918 5917 5916 5916 5916 5915 5915 5914 5914 5913 5913 5913 5913 5913 5911 5910 5909 5909 5909 5908 5907 5906 5906 5905 5904 5904 5904
5913 5914 5916 5917 5918 5919 5920 5920 5920 5921 5922 5922 5923 5924 5924 5925 5925 5926 5926 5927 5927 5928 5929 5929 5930 5931 5931 5932 5932 5933 5933 5933 5933 5932 5932 5931 5931 5930 5930 5929 5928 5927 5927 5926 5925 5924 5923 5922 5922 5921 5920 5920 5919 5919 5918 5918 5917 5917 5916 5915 5915 5914 5914 5913 5913 5913 5912 5912 5911 5911 5911 5911 5910 5909 5908 5908 5908 5908 5906 5905 5903 5903 5903 5902 5902
5912 5913 5914 5916 5917 5918 5919 5919 5919 5920 5921 5922 5922 5923 5923 5924 5924 5925 5926 5926 5927 5927 5928 5929 5929 5930 5931 5931 5932 5932 5932 5932 5931 5931 5931 5930 5930 5929 5929 5928 5927 5927 5926 5925 5925 5924 5923 5922 5921 5920 5920 5919 5918 5918 5917 5917 5916 5915 5914 5913 5913 5912 5912 5911 5911 5910 5910 5910 5909 5909 5908 5908 5908 5907 5907 5906 5906 5906 5905 5904 5903 5902 5901 5900 5900
5912 5913 5914 5915 5916 5917 5917 5918 5918 5918 5919 5920 5921 5922 5922 5923 5923 5924 5924 5925 5926 5927 5927 5928 5929 5929 5930 5931 5931 5931 5931 5931 5930 5930 5929 5929 5929 5928 5927 5927 5926 5926 5925 5925 5924 5923 5922 5922 5921 5920 5919 5918 5917 5917 5916 5915 5914 5914 5913 5912 5911 5910 5910 5909 5909 5909 5908 5908 5908 5907 5906 5905 5904 5904 5904 5904 5904 5904 5903 5902 5901 5900 5900 5899 5898
5911 5912 5913 5914 5915 5916 5916 5917 5917 5917 5918 5918 5920 5921 5921 5921 5922 5923 5923 5924 5925 5926 5927 5928 5928 5929 5929 5930 5930 5930 5930 5930 5929 5929 5928 5928 5928 5927 5926 5926 5925 5925 5924 5924 5923 5923 5922 5921 5921 5920 5919 5918 5916 5915 5915 5914 5913 5913 5912 5911 5910 5908 5907 5907 5906 5906 5906 5906 5906 5905 5905 5904 5902 5901 5900 5900 5901 5901 5901 5900 5899 5898 5897 5897 5896
5910 5911 5912 5913 5914 5915 5915 5916 5916 5916 5916 5917 5918 5919 5920 5920 5921 5922 5922 5923 5924 5925 5926 5927 5927 5928 5928 5929 5929 5929 5929 5928 5928 5927 5927 5926 5926 5926 5925 5925 5925 5924 5924 5923 5922 5922 5921 5921 5920 5919 5918 5917 5916 5915 5914 5913 5912 5912 5911 5910 5909 5907 5906 5905 5904 5904 5904 5904 5904 5903 5902 5902 5901 5899 5898 5897 5896 5897 5898 5897 5897 5896 5894 5893 5893
5908 5909 5910 5911 5912 5913 5914 5915 5916 5916 5916 5916 5916 5917 5918 5919 5920 5920 5921 5922 5923 5923 5924 5925 5926 5926 5927 5927 5927 5927 5927 5927 5926 5926 5925 5924 5924 5924 5924 5924 5924 5923 5923 5922 5922 5921 5920 5920 5919 5918 5917 5916 5915 5914 5913 5912 5911 5910 5909 5908 5907 5906 5905 5904 5902 5902 5901 5902 5902 5901 5900 5899 5899 5898 5896 5895 5893 5892 5893 5894 5894 5893 5892 5891 5890
5907 5908 5909 5909 5910 5911 5912 5913 5914 5915 5916 5916 5915 5916 5917 5918 5918 5919 5920 5921 5921 5922 5923 5924 5925 5925 5925 5926 5926 5926 5926 5925 5924 5924 5923 5923 5923 5923 5923 5923 5923 5923 5922 5922 5921 5920 5919 5919 5918 5916 5915 5914 5913 5912 5911 5910 5909 5908 5907 5907 5906 5905 5904 5903 5902 5900 5899 5898 5898 5898 5897 5897 5896 5895 5894 5893 5891 5890 5889 5890 5890 5889 5889 5888 5887